sat.trackr.live / text

‹ back to catalog

STARLINK-2413

NORAD 47827 · 2021-018AS

PAYLOAD ACTIVE UNKNOWN

§ Identity

Operator
Country
US
Launch date
2021-03-11
Launch site
AFETR
Launch vehicle
Mass (kg)
RCS (m²)

Purposes: comms

External: N2YO · Heavens-Above · Gunter

§ Orbital elements

Epoch: 2026-05-24T17:01:13.611648Z

Period
94.01 min
Inclination
53.1579°
Eccentricity
0.0001099
Mean motion
15.31722209 rev/d
Perigee alt
469.9 km
Apogee alt
471.4 km
Semi-major
6,848.8 km
B*
2.6233e-4
RAAN
249.0219°
Arg perigee
84.5446°
Mean anomaly
275.5681°
Rev number
28,842

§ Raw data

STARLINK-24131 47827U 21018AS  26144.70918532  .00007789  00000+0  26233-3 0  99912 47827  53.1579 249.0219 0001099  84.5446 275.5681 15.31722209288427

JSON: /api/v1/satellites/47827 · /tle

For live sub-satellite position, see the globe view (requires WebGL).

§ Visibility from observer

Set your observer location to see the next 7 days of passes ≥ 10°. The values pass through the URL so the page stays shareable.

No JS? Fill the form by hand. The geolocation button needs JavaScript.